Location: Karcze
(52.0945°N, 22.4786°E)
Time: 12:42:25
(UTC+00:00)

IRS-1C - Pass Details

Date: 14 July 2020
Orbit: 815 x 817 km, 98.8° (Epoch: 07 August)

Event Time Altitude Azimuth Distance (km) Brightness Sun altitude
Rises 01:08:55 0° 16° (NNE) 3,357 8.9 -9.1°
Reaches altitude 10° 01:11:17 10° 19° (NNE) 2,421 8.0 -8.9°
Maximum altitude 01:16:38 72° 104° (ESE) 863 4.4 -8.4°
Drops below altitude 10° 01:21:57 10° 189° (S) 2,403 6.0 -7.9°
Enters shadow 01:22:56 - 190° (S) 2,788 6.4 -7.8°
